Regional Weather Roundup
Issued by NWS

Home | Current Version | Previous Version | Graphics & Text | Print | Product List | Glossary On
Versions: 1 2 3 4 5 6 7 8 9 10 11 12 13 14 15 16 17 18 19 20 21 22 23 24 25 26 27 28 29 30 31 32 33 34 35 36 37 38 39 40 41 42 43 44 45 46 47 48 49 50
000
ASUS45 KPSR 242300
RWRAZ

ARIZONA REGIONAL HOURLY WEATHER ROUNDUP
NATIONAL WEATHER SERVICE PHOENIX AZ
400 PM MST FRI APR 24 2015

NOTE: FAIR INDICATES FEW OR NO CLOUDS BELOW 12,000 FEET WITH NO
SIGNIFICANT WEATHER AND/OR OBSTRUCTIONS TO VISIBILITY.

AZZ001>003-036-250000-
NORTHWEST ARIZONA

CITY           SKY/WX    TMP DP  RH WIND       PRES   REMARKS
KINGMAN        SUNNY     70  35  27 SW28G36   29.85F
$$

AZZ004>008-015-016-018-250000-
NORTH CENTRAL ARIZONA

CITY           SKY/WX    TMP DP  RH WIND       PRES   REMARKS
GRAND CANYON   CLOUDY    54  33  45 W18G32    29.91F
WILLIAMS       PTSUNNY   52  36  54 SW13G28   30.02S
PRESCOTT       LGT RAIN  59  36  42 S18G26    29.94F
FLAGSTAFF      LGT RAIN  39  37  93 W9        30.00R FOG     WCI  33
PAYSON         LGT RAIN  48  45  87 SW10G21   30.01R
PAGE           LGT RAIN  68  28  22 S7        29.75F
$$

AZZ009>014-017-250000-
NORTHEAST ARIZONA

CITY           SKY/WX    TMP DP  RH WIND       PRES   REMARKS
WINSLOW        NOT AVBL
SAINT JOHNS    MOSUNNY   61  29  29 SW28G40   29.90S
WINDOW ROCK    LGT RAIN  50  36  58 SW12G32   29.92R
SHOW LOW       MOSUNNY   50  32  50 S21G30    30.00R
$$

AZZ023-250000-
GREATER PHOENIX AREA

CITY           SKY/WX    TMP DP  RH WIND       PRES   REMARKS
PHOENIX        MOSUNNY   75  47  36 E9        29.85F
GLENDALE       PTSUNNY   75  48  38 SE7       29.86F
DEER VALLEY    CLOUDY    70  48  45 E9        29.86F
SCOTTSDALE     SUNNY     72  46  39 E7        29.89F
MESA-FALCON    PTSUNNY   72  46  40 CALM      29.88F
MESA-GATEWAY   PTSUNNY   73  46  38 NW6       29.90F
CHANDLER       PTSUNNY   75  46  35 W9        29.87F
$$

AZZ027-028-250000-
SOUTHWEST MARICOPA COUNTY AND PINAL COUNTY

CITY           SKY/WX    TMP DP  RH WIND       PRES   REMARKS
CASA GRANDE    MOSUNNY   75  43  31 W10       29.86F
$$

AZZ503-504-507>509-250000-
SOUTHEAST ARIZONA

CITY           SKY/WX    TMP DP  RH WIND       PRES   REMARKS
TUCSON         MOSUNNY   77  32  19 W13G20    29.92F
NOGALES        MOSUNNY   71  32  23 W18G24    29.97F
SAFFORD        MOSUNNY   73  34  23 NW24G30   29.89S
$$

AZZ020-021-025-026-031-250000-
SOUTHWEST ARIZONA

CITY           SKY/WX    TMP DP  RH WIND       PRES   REMARKS
YUMA           MOSUNNY   82  46  28 W15       29.84F
$$

CAZ031-033-041-043-047-048-061-250000-
SOUTHERN CALIFORNIA

CITY           SKY/WX    TMP DP  RH WIND       PRES   REMARKS
DOWNTOWN L.A.  CLOUDY    64  51  62 CALM      29.98F
L.A. AIRPORT   CLOUDY    61  52  72 W10       29.99F
SAN DIEGO      PTSUNNY   63  51  65 SW9       30.02F
BURBANK        CLOUDY    62  49  62 S7        29.97F
ONTARIO        CLOUDY    63  49  60 SW10      29.97F
RIVERSIDE      CLOUDY    63  51  65 W9        29.97F
PALM SPRINGS   SUNNY     80  45  28 NW15      29.82F
EL CENTRO NAS  MOSUNNY   79  46  31 SW24      29.87F
IMPERIAL       SUNNY     78  48  34 W17       29.83F
BLYTHE         SUNNY     80  45  28 S18G25    29.81F
$$

NVZ020-UTZ003-250000-
SOUTHERN NEVADA-UTAH

CITY           SKY/WX    TMP DP  RH WIND       PRES   REMARKS
LAS VEGAS      NOT AVBL
SALT LAKE CITY CLOUDY    61  36  39 E13       29.70R
$$

NMZ009-TXZ055-250000-
NEW MEXICO-WEST TEXAS

CITY           SKY/WX    TMP DP  RH WIND       PRES   REMARKS
ALBUQUERQUE    PTSUNNY   55  36  48 W5        29.88R THUNDER
EL PASO        MOSUNNY   73  24  16 W21G36    29.88S
$$


........................KEY........................
SKY/WX - SKY CONDITION/WEATHER
TMP    - TEMPERATURE IN FAHRENHEIT
DP     - DEW POINT IN FAHRENHEIT
RH     - RELATIVE HUMIDITY IN PERCENT
WIND   - DIRECTION AND SPEED IN MILES PER HOUR (MPH)
VRB    - VARIABLE WIND DIRECTION
PRES   - MEAN SEA LEVEL PRESSURE IN INCHES OF MERCURY
         F - FALLING PRESSURE   R - RISING PRESSURE
         S - STEADY PRESSURE
VSB    - VISIBILITY IN MILES
HX     - HEAT INDEX IN FAHRENHEIT
WCI    - WIND CHILL INDEX IN FAHRENHEIT
TC     - TEMPERATURE IN CELSIUS WHICH IS ALSO KNOWN AS
         TEMPERATURE IN CENTIGRADE
AFB    - AIR FORCE BASE
         LUKE AFB IS LUKE AIR FORCE BASE
         DAVIS-MONTHAN IS DAVIS-MONTHAN AIR FORCE BASE
NAS    - NAVAL AIR STATION
         EL CENTRO NAS IS EL CENTRO NAVAL AIR STATION
N/A    - NOT AVAILABLE



USA.gov is the U.S. government's official web portal to all federal, state and local government web resources and services.